Location: La Brionne
(46.1728°N, 1.7849°E)
Time: 04:29:18
(UTC+00:00)

BEESAT 3 - Visible Passes

Search period start: 23 March 2023 00:00
Search period end: 02 April 2023 00:00
Orbit: 414 x 441 km, 64.9° (Epoch: 22 March)

Date Brightness Start Highest point End Pass type
(mag) Time Alt. Az. Time Alt. Az. Time Alt. Az.
23 Mar ? 03:45:52 30° SE 03:46:30 33° ESE 03:49:40 10° NE visible
23 Mar ? 05:19:27 10° W 05:22:18 23° NW 05:25:11 10° NNE visible
24 Mar ? 03:03:25 17° E 03:03:25 17° E 03:05:06 10° ENE visible
24 Mar ? 04:36:35 24° WSW 04:38:11 40° NW 04:41:29 10° NNE visible
25 Mar ? 03:53:53 78° W 03:53:59 79° NW 03:57:27 10° NE visible
26 Mar ? 03:10:56 32° ENE 03:10:56 32° ENE 03:13:04 10° NE visible
26 Mar ? 04:44:04 14° WNW 04:45:41 18° NW 04:48:09 10° N visible
27 Mar ? 02:27:47 13° ENE 02:27:47 13° ENE 02:28:15 10° ENE visible
27 Mar ? 04:00:54 29° NW 04:01:00 29° NW 04:04:04 10° NNE visible
28 Mar ? 03:17:31 33° N 03:17:31 33° N 03:19:38 10° NNE visible
29 Mar ? 02:33:55 17° NE 02:33:55 17° NE 02:34:51 10° NE visible
29 Mar ? 04:07:00 14° NW 04:07:31 14° NW 04:09:30 10° N visible
30 Mar ? 03:23:12 20° NNW 03:23:12 20° NNW 03:25:05 10° NNE visible
31 Mar ? 02:39:13 17° NNE 02:39:13 17° NNE 02:40:14 10° NNE visible
01 Apr ? 01:55:02 10° NE 01:55:02 10° NE 01:55:02 10° NE visible
01 Apr ? 03:28:04 12° NNW 03:28:04 12° NNW 03:29:12 10° N visible
